Regional Weather Roundup
Issued by NWS

Home | Current Version | Previous Version | Text Only | Print | Product List | Glossary On
Versions: 1 2 3 4 5 6 7 8 9 10 11 12 13 14 15 16 17 18 19 20 21 22 23 24 25 26 27 28 29 30 31 32 33 34 35 36 37 38 39 40 41 42 43 44 45 46 47 48 49 50
000
ASUS43 KTOP 290208
RWRKS

WEATHER ROUNDUP FOR KANSAS
NATIONAL WEATHER SERVICE GOODLAND KS
800 PM CST WED JAN 28 2015

NOTE:  "FAIR" INDICATES FEW OR NO CLOUDS BELOW 12,000 FEET WITH NO
SIGNIFICANT WEATHER AND/OR OBSTRUCTIONS TO VISIBILITY.

KSZ001>006-013>018-027>032-041>047-290300-
NORTHWEST KANSAS

CITY           SKY/WX    TMP DP  RH WIND       PRES   REMARKS
GOODLAND       CLEAR     46  34  62 NW16      30.12R
HAYS           CLEAR     59  30  33 NW20G25   29.96R
HILL CITY      CLEAR     56  28  34 NW18      29.99R
RUSSELL        FAIR      60  33  36 NW22      29.92R
$$

KSZ061>065-074>080-084>089-290300-
SOUTHWEST KANSAS

CITY           SKY/WX    TMP DP  RH WIND       PRES   REMARKS
DODGE CITY     PTCLDY    54  30  40 NW13      30.02R
ELKHART          N/A     56  26  31 NW3         N/A
GARDEN CITY    PTCLDY    54  31  41 NW20      30.05R
LIBERAL        PTCLDY    52  27  37 NW10      30.08R
PRATT          MOCLDY    54  32  43 NW12      29.96R
$$

KSZ066>073-081>083-090>101-290300-
SOUTHEAST KANSAS

CITY           SKY/WX    TMP DP  RH WIND       PRES   REMARKS
CHANUTE        PTCLDY    58  39  49 SW8       29.83S
COFFEYVILLE    CLEAR     64  40  41 SW7       29.86R
HUTCHINSON     PTCLDY    52  31  44 W7        29.88R
MEDICINE LODGE   N/A     57  30  35 N3        29.94R
NEWTON         MOCLDY    55  30  38 W9        29.88R
PARSONS        PTCLDY    63  41  44 SW7       29.85R
WICHITA INTL   CLOUDY    56  34  43 W9        29.88R
WICHITA JABRA  CLOUDY    61  34  36 SW8       29.87R
WICHITA MCCONL CLOUDY    59  37  42 SW7       29.88R
WINFIELD       CLOUDY    59  27  29 SW10      29.90R
$$

KSZ007>012-019>026-033>040-048>060-102>105-290300-
NORTHEAST KANSAS

CITY           SKY/WX    TMP DP  RH WIND       PRES   REMARKS
CONCORDIA      CLEAR     59  33  37 NW15      29.84R
EMPORIA        MOCLDY    57  36  45 SW10      29.80R
LAWRENCE       MOCLDY    57  35  43 W9        29.76R
MANHATTAN      MOCLDY    51  35  54 SW8       29.78R
MARYSVILLE     PTCLDY    54  34  47 NW9       29.77R
OLATHE IND     FAIR      58  39  49 SW10      29.77R
OLATHE EXE     PTCLDY    62  39  42 W10       29.76R
SALINA         CLEAR     60  32  34 W15       29.84R
TOPEKA BILLARD CLOUDY    60  35  39 SW3       29.76R
TOPEKA FORBES  CLOUDY    56  35  45 SW9       29.76S
$$


USA.gov is the U.S. government's official web portal to all federal, state and local government web resources and services.